Dewpoint
61 62 62 61 60 59 59 58 59 59 59 59 59 58 57 57 56 56 56 56 56 57 58 57 58 61 63 63 62 62 61 61 60 57 57 55 54 54 54 55 54 55 54
62 62 62 61 60 59 59 60 60 60 60 59 58 58 58 59 59 59 59 58 58 58 59 58 57 58 59 59 60 60 60 60 61 61 58 57 56 54 53 54 54 54 53
61 62 61 60 60 59 59 60 60 58 58 59 59 59 59 59 59 60 60 59 59 59 59 61 60 59 59 59 59 58 59 60 61 61 61 59 58 56 54 54 53 54 53
59 60 59 58 56 59 58 57 57 57 58 59 59 59 59 59 60 60 60 59 60 59 59 58 60 59 59 58 58 58 60 60 60 61 61 60 60 59 57 55 54 53 53
57 58 57 56 56 55 54 55 56 57 58 58 58 59 59 59 59 59 59 58 59 59 59 58 58 57 57 57 58 60 59 57 57 57 58 59 60 60 59 57 56 54 54
57 57 57 58 59 58 57 56 56 58 59 59 60 59 59 59 59 58 58 58 59 57 57 56 57 59 60 59 58 57 56 57 56 56 56 56 57 57 59 59 58 56 55
61 59 59 59 60 60 60 61 61 60 60 61 59 57 56 57 57 53 53 55 56 54 54 55 56 56 56 56 55 55 55 55 55 54 54 54 54 55 56 57 58 59 57
62 61 60 60 61 61 61 61 61 60 60 61 57 55 52 53 52 53 50 51 51 50 50 52 51 50 50 52 52 52 51 52 52 53 53 52 54 53 52 54 56 57 58
62 61 61 61 62 62 62 62 62 61 59 59 58 57 52 49 51 52 50 49 48 48 49 49 48 48 48 48 48 49 50 51 51 52 52 52 52 51 51 51 55 57 57
62 62 62 62 61 60 60 59 61 60 60 58 56 57 57 55 52 47 50 50 49 48 48 48 46 45 47 48 48 49 49 51 51 52 51 51 51 52 53 53 54 55 57
59 59 59 58 58 57 54 53 51 50 54 53 52 53 54 54 54 53 50 50 49 48 48 47 45 44 45 46 46 48 48 50 51 53 53 52 52 52 51 52 53 53 54
57 58 57 57 55 54 53 52 52 53 52 52 53 53 53 51 50 51 50 50 49 47 46 45 45 44 45 45 47 47 47 49 49 49 50 50 49 51 55 52 50 52 52
55 55 54 52 51 51 51 51 52 52 53 52 52 52 52 53 53 52 50 49 48 46 45 45 44 43 43 43 44 44 46 46 47 47 47 48 48 50 52 54 54 54 52
55 54 54 53 51 50 51 51 51 51 52 52 52 53 53 53 52 52 51 50 48 48 45 44 43 43 43 42 44 43 43 45 45 45 46 45 46 48 49 51 51 52 54
55 54 53 51 49 49 49 50 49 49 50 51 50 50 51 51 52 52 52 52 49 47 46 43 42 42 43 42 42 40 40 43 43 43 43 43 43 44 47 48 49 50 51
51 51 48 48 48 48 47 47 47 48 49 50 50 50 50 50 51 50 51 51 51 50 48 43 41 41 41 41 42 38 39 40 42 40 41 41 41 42 44 46 47 48 49
46 46 46 45 45 45 44 44 44 44 45 47 48 48 48 49 49 48 47 47 47 47 46 40 40 40 39 39 38 37 37 37 37 39 39 37 38 41 42 42 44 45 46
44 43 43 43 42 42 42 41 41 41 42 43 45 46 46 46 46 46 45 44 44 43 44 42 39 38 38 37 36 35 36 35 34 34 34 33 34 37 40 40 41 42 43
42 41 41 40 40 40 40 40 40 40 41 42 43 44 45 45 44 43 43 42 41 41 41 41 37 38 37 36 34 33 32 31 27 27 31 33 33 32 33 36 36 37 38
40 40 39 39 39 39 39 39 39 39 39 39 40 40 43 44 43 42 41 41 40 39 39 39 38 37 36 35 33 31 29 25 25 23 24 26 28 27 32 32 30 29 30
39 38 38 38 38 38 38 38 38 38 38 38 39 39 40 41 42 41 40 39 39 38 38 37 37 36 35 33 32 28 27 24 23 24 21 20 19 20 23 26 27 29 29
38 37 37 37 37 38 38 39 40 38 38 38 38 39 40 41 41 41 40 39 39 38 37 36 36 35 34 31 27 26 24 21 15 24 21 16 21 21 22 24 28 29 30
36 36 36 36 36 36 38 40 40 39 38 38 38 38 38 39 38 38 37 35 36 36 35 34 34 32 30 28 26 25 23 22 18 22 21 13 21 20 23 23 30 30 31
36 36 36 36 36 36 39 39 41 38 37 37 37 37 36 34 33 33 29 28 26 24 25 26 29 28 26 26 25 25 23 22 23 22 20 13 21 21 23 25 30 30 30
35 35 35 36 36 36 38 38 38 36 36 35 35 34 32 30 32 33 28 25 24 27 29 30 29 29 29 28 27 24 22 20 17 19 22 19 21 21 23 24 27 30 30
35 35 35 36 37 36 37 38 37 34 34 33 31 31 34 29 29 31 24 22 21 23 24 23 22 21 21 27 28 23 24 19 18 17 22 22 21 21 19 22 24 24 25
Wind_Speed
11 9 9 7 8 7 7 7 5 4 3 4 4 5 7 7 7 7 7 8 8 9 10 9 8 8 5 6 6 7 9 9 7 7 6 5 3 1 1 1 2 3 5
11 11 10 9 8 9 8 7 6 5 5 4 5 5 6 6 7 8 7 7 8 9 9 12 10 9 7 8 6 7 7 6 11 11 9 8 6 4 3 2 1 1 2
12 12 11 10 11 9 7 6 6 4 4 3 6 7 7 7 7 5 5 4 4 4 6 10 10 10 4 5 6 6 6 8 8 6 13 12 10 9 7 5 3 3 2
14 13 12 12 10 9 8 7 6 6 7 7 6 7 7 6 8 9 5 4 4 5 5 5 6 6 2 1 3 4 5 9 9 9 9 6 14 11 10 9 7 6 4
15 15 14 13 10 9 10 9 8 7 8 8 8 7 6 7 8 7 8 7 8 7 6 5 8 8 6 3 4 6 7 7 7 9 9 10 6 13 13 12 10 9 8
15 16 13 12 10 10 9 8 10 9 8 5 6 9 7 8 8 7 8 7 7 3 3 7 8 9 11 9 7 7 6 6 6 6 8 9 8 7 8 16 13 12 11
15 15 14 13 11 11 12 11 7 9 7 2 5 6 6 9 9 5 5 5 3 2 5 7 8 9 10 11 9 8 7 7 7 7 6 7 7 8 8 7 7 15 14
16 15 14 16 15 12 9 7 7 4 3 1 3 2 7 7 3 5 6 4 4 6 7 6 8 9 8 9 10 10 9 7 7 7 7 6 7 7 8 8 8 6 16
15 15 16 13 11 11 11 8 6 5 7 0 2 5 4 5 3 2 3 5 5 6 6 7 6 7 9 8 7 7 8 7 8 9 8 6 7 7 8 8 9 7 7
12 12 9 6 5 6 2 1 1 5 6 9 1 4 5 2 3 5 1 1 2 6 6 6 6 6 7 6 6 7 7 7 9 8 6 7 7 8 10 11 12 9 5
3 5 14 15 12 5 2 3 5 2 2 1 4 2 4 4 7 9 11 5 0 2 3 7 7 5 5 5 5 6 6 6 7 10 9 11 11 11 10 12 13 13 12
8 6 3 6 7 10 7 5 4 6 3 3 4 5 6 5 4 7 9 9 6 3 2 3 6 5 5 4 5 6 7 7 7 6 8 9 12 14 19 7 5 7 11
8 6 5 7 5 8 10 11 8 5 5 5 6 8 8 11 9 7 9 11 11 5 4 4 5 4 3 4 4 5 5 6 6 6 7 9 11 14 18 17 17 14 4
11 10 9 5 7 6 4 3 1 2 3 5 7 7 8 9 8 10 10 9 10 9 7 5 4 5 5 4 4 4 3 5 6 5 6 8 10 14 15 16 17 17 21
12 15 11 10 7 5 5 3 1 2 3 4 6 7 8 9 8 9 11 12 11 12 12 8 7 6 6 4 3 3 3 4 4 4 6 8 10 11 13 14 15 14 18
9 12 9 9 7 6 4 2 0 2 4 6 6 7 8 6 6 5 6 5 6 11 11 4 3 4 7 5 5 3 2 3 5 3 3 6 7 8 10 12 13 15 15
6 7 10 9 6 5 3 2 1 2 5 7 7 8 9 5 6 4 2 2 3 2 3 1 3 4 5 7 3 2 2 3 2 3 2 4 6 6 7 11 11 11 14
10 9 7 7 6 4 3 2 1 3 5 8 8 8 8 4 5 4 4 4 3 1 2 7 3 4 3 4 3 3 2 5 3 3 4 5 6 7 5 6 9 11 12
10 9 8 7 5 3 4 3 1 2 5 5 6 7 9 7 6 5 4 5 3 2 2 3 5 3 2 4 2 2 3 3 3 6 6 6 6 6 5 6 7 9 10
8 7 6 5 5 5 4 2 1 3 4 4 5 5 5 6 8 8 7 7 6 5 3 4 5 4 3 3 4 4 4 2 1 3 3 5 4 5 4 5 6 7 8
8 8 7 5 4 3 2 2 3 4 5 4 2 2 2 2 3 5 7 7 7 6 5 7 6 4 5 5 6 4 5 4 1 2 2 3 3 3 4 4 4 5 6
8 7 6 5 5 4 4 4 5 5 5 5 5 2 1 2 4 5 4 4 5 6 7 6 5 6 6 5 4 5 5 4 3 0 2 0 2 2 2 3 3 4 4
9 9 7 7 7 6 6 6 6 5 6 6 6 5 4 4 5 7 8 7 8 6 3 2 5 4 5 7 9 6 5 3 3 2 2 2 1 1 2 4 3 3 6
12 10 9 8 7 6 5 4 5 5 5 5 6 7 7 6 4 6 5 5 4 4 4 3 1 3 2 8 7 6 7 5 3 2 2 2 1 1 3 3 3 5 5
11 11 8 11 11 8 7 7 6 6 6 6 6 6 7 6 5 6 6 6 4 4 5 8 9 8 10 9 9 10 7 5 2 2 1 1 1 0 1 1 3 5 4
13 11 10 11 12 10 10 11 9 7 8 7 5 5 6 6 6 8 7 8 7 6 7 6 7 6 6 6 7 3 8 6 3 2 3 3 3 1 2 1 1 2 2
Wind_Direction
188 189 197 200 202 196 204 206 202 208 230 261 261 264 280 285 285 284 285 284 277 276 269 279 275 268 262 256 259 261 272 245 234 234 212 192 192 288 342 36 32 53 45
204 201 198 206 216 210 211 207 208 223 236 238 260 251 264 273 278 286 283 274 280 284 279 263 260 266 289 311 324 348 3 323 265 248 243 230 203 201 239 237 220 123 53
211 205 207 211 220 215 213 225 236 240 239 238 249 257 256 258 256 250 249 234 258 295 296 269 258 260 272 314 334 354 9 14 1 299 246 233 227 211 209 220 221 212 184
209 207 208 221 225 216 217 225 222 225 231 224 244 252 258 259 268 272 268 273 272 280 268 278 254 229 140 27 358 9 41 41 16 14 0 271 234 227 223 217 213 222 208
206 206 213 221 206 201 206 213 221 219 230 232 245 261 272 289 294 302 291 293 281 275 264 254 161 148 124 98 70 65 50 37 23 17 6 6 351 244 231 228 221 219 205
204 202 210 219 202 197 205 215 226 225 245 258 284 298 298 297 293 294 302 296 277 269 166 138 119 109 105 96 75 62 46 31 17 21 7 7 353 356 340 237 223 222 213
198 204 207 203 203 206 209 209 220 227 242 251 307 316 290 292 299 350 339 304 280 145 129 119 111 99 85 82 73 63 40 20 5 356 357 349 345 349 341 332 267 230 218
197 194 210 207 201 209 214 211 202 218 222 172 266 309 309 323 5 24 32 37 94 113 115 108 106 108 97 85 68 62 47 20 1 353 339 325 326 320 317 314 313 299 233
190 193 202 205 199 198 195 186 183 226 263 288 163 253 292 265 320 320 62 93 119 113 118 118 114 114 108 97 81 60 51 12 360 350 337 320 314 308 316 310 319 318 295
175 177 172 169 111 84 97 72 155 192 192 247 269 235 241 215 268 302 357 90 143 152 155 135 136 125 110 101 93 69 49 10 358 13 7 3 358 356 344 322 307 306 309
16 136 148 154 142 138 176 197 201 208 169 217 223 228 233 238 252 241 280 253 54 40 144 160 154 138 123 122 98 71 46 18 10 34 53 44 30 6 337 293 273 268 277
164 145 177 135 150 156 162 207 193 198 171 220 233 226 225 233 219 225 250 262 242 209 160 163 160 150 143 130 93 70 60 36 19 9 21 32 24 1 349 2 327 259 246
178 170 191 166 148 194 180 192 192 176 188 215 237 249 242 240 238 244 258 263 258 212 189 205 172 162 160 146 104 72 51 53 40 9 10 28 27 11 9 24 40 36 344
176 170 191 213 204 178 171 155 138 181 203 224 244 245 260 260 248 236 228 246 269 225 200 203 181 180 170 156 116 84 45 52 62 54 44 33 30 19 24 32 40 34 29
171 182 192 174 159 147 127 136 201 260 251 252 255 259 251 264 257 253 248 239 246 269 230 208 182 184 170 148 127 79 60 36 63 38 41 34 33 19 25 35 36 36 35
169 172 166 142 149 138 133 133 154 300 282 264 252 254 259 257 259 256 258 263 250 255 261 172 186 164 172 154 129 110 47 73 46 9 29 39 25 23 31 37 40 39 31
143 153 139 145 156 144 132 136 106 323 284 276 266 253 265 257 254 242 252 252 251 249 238 102 142 155 168 159 151 111 124 94 46 14 85 53 49 46 44 45 45 48 53
155 151 149 145 142 138 135 126 36 319 297 282 275 270 267 244 240 231 223 228 223 236 211 191 159 144 169 168 158 134 96 76 55 38 67 61 62 58 63 57 55 55 57
149 151 155 152 144 135 124 104 105 296 291 294 292 279 265 236 226 219 210 190 185 179 145 166 167 141 142 154 136 106 104 89 61 47 53 42 47 48 59 73 65 65 60
153 155 144 135 137 144 136 137 218 271 292 309 310 293 275 244 230 212 201 194 184 187 183 185 172 156 156 152 154 160 151 83 231 29 41 33 37 42 35 65 63 59 65
166 162 153 140 137 145 170 210 249 266 266 263 265 293 290 233 213 196 194 194 195 193 188 185 178 159 168 163 191 170 164 172 181 37 17 23 24 46 35 45 49 61 73
169 163 167 173 186 199 214 218 222 240 247 237 232 213 185 186 172 160 144 157 179 190 195 190 193 199 179 164 147 160 155 171 209 122 97 163 27 83 43 17 30 38 55
180 184 182 186 202 209 223 235 239 217 237 225 211 189 162 113 116 114 95 79 82 68 64 213 217 209 186 180 156 163 179 172 176 162 112 184 19 173 350 334 326 81 99
192 190 196 197 195 210 215 220 196 185 210 211 199 186 179 165 151 149 133 110 76 67 67 88 114 170 138 153 159 166 168 137 103 103 94 201 22 178 347 2 56 126 99
195 196 196 193 193 194 211 213 170 186 194 197 189 182 179 183 190 173 157 157 139 90 81 94 106 120 128 137 141 129 137 144 150 173 133 157 157 200 32 125 30 59 72
198 192 202 200 204 198 200 211 188 195 197 200 201 192 197 199 209 194 181 180 182 182 149 118 98 83 90 143 150 136 158 156 146 178 177 167 171 136 167 243 277 7 52